Worcester, MA

5:45 PM EDT on July 22, 2017 (GMT -0400)
Worcester Regional

Weather History for KORH - April, 2013

Change the Weather History Date:

Monday, April 22, 2013

  Actual Average Record
Temperature  
Mean Temperature 41 °F 49 °F  
Max Temperature 48 °F 58 °F 84 °F (1973)
Min Temperature 33 °F 39 °F 23 °F (1981)
Degree Days  
Heating Degree Days 24 17  
Month to date heating degree days 451 452  
Since 1 July heating degree days 5852 6228  
Cooling Degree Days 0 0  
Month to date cooling degree days 0 0  
Year to date cooling degree days 0 0  
Moisture  
Dew Point 26 °F    
Average Humidity 52    
Maximum Humidity 75    
Minimum Humidity 29    
Precipitation  
Precipitation 0.00 in 0.13 in 2.05 in (1937)
Month to date precipitation 1.76 3.08  
Year to date precipitation 12.32 14.01  
Sea Level Pressure  
Sea Level Pressure 30.65 in    
Wind  
Wind Speed 10 mph (ENE)    
Max Wind Speed 20 mph    
Max Gust Speed 27 mph    
Visibility 10 miles    
Events      
T = Trace of Precipitation, MM = Missing Value Source: NWS Daily Summary

Daily Weather History Graph

Daily Weather History Graph

Search for Another Location

Airport or City:

Trip Planner

Search our weather history database for the weather conditions in past years. The results will help you decide how hot, cold, wet, or windy it might be!

Date:

Astronomy

Apr. 22, 2013 Rise Set
Actual Time 5:55 AM EDT 7:37 PM EDT
Civil Twilight 5:25 AM EDT 8:06 PM EDT
Nautical Twilight 4:49 AM EDT 8:43 PM EDT
Astronomical Twilight 4:11 AM EDT 9:22 PM EDT
Moon 4:19 PM EDT 3:52 AM EDT
Length of Visible Light 14h 41m
Length of Day
13h 41m
Waxing Gibbous, 87% of the Moon is Illuminated
Apr 22
Waxing Gibbous
Apr 25
Full
May 2
Last Quarter
May 9
New
May 18
First Quarter

Hourly Weather History & Observations

Time (EDT) Temp. Windchill Dew Point Humidity Pressure Visibility Wind Dir Wind Speed Gust Speed Precip Events Conditions
12:54 AM 37.0 °F - 27.0 °F 67% 30.67 in 10.0 mi Calm Calm - N/A   Clear
1:54 AM 34.0 °F 31.0 °F 26.1 °F 73% 30.67 in 10.0 mi NW 3.5 mph - N/A   Clear
2:54 AM 33.1 °F 30.0 °F 26.1 °F 75% 30.67 in 10.0 mi NW 3.5 mph - N/A   Clear
3:54 AM 36.0 °F - 27.0 °F 70% 30.66 in 10.0 mi Calm Calm - N/A   Clear
4:54 AM 35.1 °F 31.0 °F 26.1 °F 70% 30.68 in 10.0 mi NNE 4.6 mph - N/A   Clear
5:54 AM 33.1 °F 26.1 °F 26.1 °F 75% 30.69 in 10.0 mi NNE 8.1 mph - N/A   Clear
6:54 AM 33.1 °F 26.9 °F 26.1 °F 75% 30.70 in 10.0 mi NNE 6.9 mph - N/A   Clear
7:54 AM 36.0 °F 29.6 °F 25.0 °F 64% 30.71 in 10.0 mi ENE 8.1 mph - N/A   Clear
8:54 AM 39.0 °F 31.8 °F 23.0 °F 53% 30.71 in 10.0 mi East 11.5 mph 20.7 mph N/A   Clear
9:54 AM 44.1 °F 38.6 °F 23.0 °F 43% 30.73 in 10.0 mi East 10.4 mph - N/A   Clear
10:54 AM 46.0 °F 39.9 °F 21.9 °F 39% 30.72 in 10.0 mi East 13.8 mph 26.5 mph N/A   Partly Cloudy
11:54 AM 48.0 °F - 19.9 °F 33% 30.70 in 10.0 mi East 13.8 mph 26.5 mph N/A   Clear
12:54 PM 48.0 °F - 19.9 °F 33% 30.69 in 10.0 mi East 15.0 mph 27.6 mph N/A   Clear
1:54 PM 46.9 °F - 19.9 °F 34% 30.68 in 10.0 mi ENE 12.7 mph 23.0 mph N/A   Clear
2:54 PM 48.0 °F - 18.0 °F 30% 30.65 in 10.0 mi ENE 13.8 mph 23.0 mph N/A   Clear
3:54 PM 48.0 °F - 19.9 °F 33% 30.64 in 10.0 mi East 12.7 mph - N/A   Clear
4:54 PM 46.0 °F 40.2 °F 27.0 °F 47% 30.63 in 10.0 mi East 12.7 mph 24.2 mph N/A   Partly Cloudy
5:54 PM 43.0 °F 37.7 °F 30.0 °F 60% 30.63 in 10.0 mi East 9.2 mph - N/A   Mostly Cloudy
6:17 PM 42.1 °F 35.2 °F 30.9 °F 65% 30.59 in 10.0 mi East 12.7 mph - N/A   Overcast
6:25 PM 42.1 °F 34.9 °F 30.0 °F 62% 30.60 in 10.0 mi East 13.8 mph 18.4 mph N/A   Overcast
6:54 PM 41.0 °F 33.1 °F 30.0 °F 65% 30.63 in 10.0 mi ENE 15.0 mph 20.7 mph N/A   Overcast
7:54 PM 39.9 °F 32.1 °F 28.9 °F 65% 30.62 in 10.0 mi ENE 13.8 mph 21.9 mph N/A   Overcast
8:54 PM 37.9 °F 30.0 °F 28.0 °F 68% 30.62 in 10.0 mi East 12.7 mph 19.6 mph N/A   Clear
9:54 PM 37.0 °F 29.3 °F 28.0 °F 70% 30.61 in 10.0 mi East 11.5 mph - N/A   Partly Cloudy
10:16 PM 37.0 °F 30.4 °F 28.0 °F 70% 30.57 in 10.0 mi ENE 9.2 mph - N/A   Mostly Cloudy
10:42 PM 36.0 °F 27.5 °F 28.0 °F 73% 30.56 in 10.0 mi ENE 12.7 mph 18.4 mph N/A   Scattered Clouds
10:54 PM 36.0 °F 28.5 °F 28.9 °F 76% 30.59 in 10.0 mi ENE 10.4 mph - N/A   Scattered Clouds
11:10 PM 36.0 °F 28.5 °F 28.0 °F 73% 30.56 in 10.0 mi ENE 10.4 mph - N/A   Mostly Cloudy
11:54 PM 36.0 °F 29.0 °F 28.0 °F 73% 30.58 in 10.0 mi ENE 9.2 mph - N/A   Overcast